Regional Weather Roundup
Issued by NWS

Home | Current Version | Previous Version | Graphics & Text | Print | Product List | Glossary On
Versions: 1 2 3 4 5 6 7 8 9 10 11 12 13 14 15 16 17 18 19 20 21 22 23 24 25 26 27
000
ASUS45 KCYS 281010
RWRWY

WYOMING REGIONAL WEATHER ROUNDUP
NATIONAL WEATHER SERVICE CHEYENNE WY
400 AM MDT WED SEP 28 2016

NOTE:  "FAIR" INDICATES FEW OR NO CLOUDS BELOW 12,000 FEET
WITH NO SIGNIFICANT WEATHER AND/OR OBSTRUCTIONS TO VISIBILITY.

WYZ001-281100-
YELLOWSTONE NATIONAL PARK

CITY           SKY/WX    TMP DP  RH WIND       PRES   REMARKS
LK YELLOWSTONE   N/A     32  32 100 CALM      30.41F
W YELLOWSTONE  NOT AVBL

$$
WYZ002>013-054>058-071-098>099-281100-
NORTHERN WYOMING

CITY           SKY/WX    TMP DP  RH WIND       PRES   REMARKS
JACKSON        FAIR      37  36  93 N5        30.34R WCI  34
CODY           FAIR      55  41  58 SW6       30.26S
GREYBULL       FAIR      49  46  90 CALM      30.21R
WORLAND        FAIR      48  43  82 S6        30.21S
SHERIDAN       FAIR      46  40  79 CALM      30.20R
BUFFALO        FAIR      58  35  42 W9        30.26R
GILLETTE       FAIR      45  42  89 CALM      30.22R
HULETT         FAIR      46  41  81 S7        30.22R
NEWCASTLE      FAIR      50  37  62 N10       30.22R

$$
WYZ014>020-022>026-101>103-281100-
CENTRAL WYOMING

CITY           SKY/WX    TMP DP  RH WIND       PRES   REMARKS
BIG PINEY      FAIR      38  33  82 SE5       30.36R WCI  34
PINEDALE       FAIR      32  32 100 NW6       30.36S WCI  26
DUBOIS         FAIR      41  32  70 NW9       30.38R
LANDER         FAIR      49  38  65 E6        30.28S
RIVERTON       FAIR      48  42  80 NW8       30.29R
CASPER         FAIR      43  38  82 W8        30.28R
DOUGLAS        FAIR      43  38  82 NW3       30.27R

$$
WYZ021-027>030-104>119-281100-
SOUTHERN WYOMING

CITY           SKY/WX    TMP DP  RH WIND       PRES   REMARKS
EVANSTON       FAIR      50  35  56 S5        30.32S
FORT BRIDGER   FAIR      46  38  74 W7        30.36R
ROCK SPRINGS   FAIR      50  36  58 E3        30.33R
DIXON          FAIR      43  34  69 SE5       30.34S
RAWLINS        FAIR      36  28  73 NE5       30.35R WCI  32
SARATOGA       FAIR      37  32  81 SE6       30.36S WCI  33
LARAMIE        FAIR      39  30  70 S7        30.36S WCI  34
CHEYENNE       FAIR      47  31  53 W10       30.30R
TORRINGTON     FAIR      42  38  85 NE6       30.20R
PINE BLUFFS    FAIR      41  34  75 CALM      30.26R

$$




USA.gov is the U.S. government's official web portal to all federal, state and local government web resources and services.